[Iaude] MPEC E22: 2024 EK [a=1.87,e=0.47,i=3.6,H=26.5]

mpec at cfa.harvard.edu mpec at cfa.harvard.edu
Sun Mar 3 05:27:53 EST 2024


M.P.E.C. 2024-E22                                 Issued 2024 March 3, 10:26 UT

     The Minor Planet Electronic Circulars contain information on unusual
         minor planets, routine data on comets and natural satellites,
         and occasional editorial announcements.  They are published
    on behalf of Division F of the International Astronomical Union by the
          Minor Planet Center, Smithsonian Astrophysical Observatory,
                          Cambridge, MA 02138, U.S.A.
			  
             Prepared using the Tamkin Foundation Computer Network

                              MPC at CFA.HARVARD.EDU
            URL https://www.minorplanetcenter.net/    ISSN 1523-6714

                                    2024 EK                                     


Observations:
     K24E00K* C2024 03 02.29660810 01 02.034+26 42 44.36         21.33wXEE022F52
     K24E00K  C2024 03 02.30828010 01 04.007+26 42 26.49         21.82wXEE022F52
     K24E00K  C2024 03 02.31999810 01 05.977+26 42 07.96         21.80wXEE022F52
     K24E00K  C2024 03 02.33169910 01 07.914+26 41 49.27         21.67wXEE022F52
     K24E00K  C2024 03 02.46655710 01 29.803+26 37 49.45         21.13GVEE022F51
     K24E00K  C2024 03 02.46720210 01 29.915+26 37 48.28         21.22GVEE022F51
     K24E00K KC2024 03 03.14133310 04 12.83 +26 15 25.9          21.3 GVEE022H21
     K24E00K KC2024 03 03.14692910 04 13.93 +26 15 15.3          21.5 GVEE022H21
     K24E00K KC2024 03 03.15252510 04 15.02 +26 15 04.4          22.0 GVEE022H21
     K24E00K KC2024 03 03.15522810 04 15.56 +26 14 59.1          21.7 GVEE022H21
     K24E00K KC2024 03 03.41099010 05 09.258+26 06 07.99               VEE022I52
     K24E00K KC2024 03 03.41268510 05 09.514+26 06 03.24         21.98GVEE022I52
     K24E00K KC2024 03 03.41438110 05 09.870+26 05 59.21         21.42GVEE022I52
     K24E00K KC2024 03 03.41608710 05 10.234+26 05 54.82         21.27GVEE022I52

Observer details:
F51 Pan-STARRS 1, Haleakala.  Observers J. Herman, T. Lowe, P. Minguez, A.
    Schultz, I. Smith.  Measurers K. Chambers, T. de Boer, J. Fairlamb, H.
    Gao, M. Huber, C.-C. Lin, E. Magnier, Y. Ramanjooloo, R. Wainscoat, R.
    Weryk.  1.8-m Ritchey-Chretien + CCD.
F52 Pan-STARRS 2, Haleakala.  Observers J. Herman, T. Lowe, P. Minguez, A.
    Schultz, I. Smith.  Measurers K. Chambers, T. de Boer, J. Fairlamb, H.
    Gao, M. Huber, C.-C. Lin, E. Magnier, Y. Ramanjooloo, R. Wainscoat, R.
    Weryk.  1.8-m Ritchey-Chretien + CCD.
H21 Astronomical Research Observatory, Westfield.  Observer R. Holmes.
    Measurers T. Linder, R. Holmes, L. Horn.  0.76-m f/3.0 astrograph + CCD.
I52 Steward Observatory, Mt. Lemmon Station.  Observers T. Beuden, J. K.
    Hogan.  Measurers T. Beuden, V. F. Carvajal, D. Fay, J. B. Fazekas, D. C.
    Fuls, A. R. Gibbs, A. D. Grauer, H. Groeller, J. K. Hogan, R. A. Kowalski,
    S. M. Larson, G. J. Leonard, D. Rankin, R. L. Seaman, F. C. Shelly, K. W.
    Wierzchos.  1.0-m prime focus + CCD.

Orbital elements:
2024 EK                                                  Earth MOID = 0.0089 AU
Epoch 2024 Mar. 31.0 TT = JDT 2460400.5                 MPC                     
M 359.31674              (2000.0)            P               Q                  
n   0.38697051     Peri.  201.47712     -0.96067373     +0.27761914             
a   1.8650228      Node   354.63107     -0.24489380     -0.85690060             
e   0.4686868      Incl.    3.55131     -0.13089311     -0.43433741             
P   2.55           H   26.52          G   0.15           U   8                  
Residuals in seconds of arc
240302 F52  0.0   0.2-    240302 F51  0.1+  0.0     240303 I52 (1.4+  0.7+)
240302 F52  0.1-  0.1+    240303 H21  0.1+  0.0     240303 I52  0.0   0.0
240302 F52  0.1-  0.0     240303 H21  0.0   0.2+    240303 I52  0.1-  0.0
240302 F52  0.2-  0.1+    240303 H21  0.1-  0.0     240303 I52  0.1-  0.3-
240302 F51  0.0   0.1-    240303 H21  0.0   0.0

Ephemeris:
2024 EK                  a,e,i = 1.87, 0.47, 4                   q = 0.9909
Date    TT    R. A. (2000) Decl.     Delta      r    Elong.  Phase     V
2024 02 02    09 30 47.5 +28 26 26   0.2208  1.2012   166.5    11.0    24.3
...
2024 02 17    09 36 45.1 +29 12 21   0.1352  1.1176   162.4    15.5    23.3
...
2024 02 25    09 45 23.7 +28 36 11   0.09580 1.0792   158.3    19.8    22.6
...
2024 03 02    09 59 53.3 +26 51 13   0.06818 1.0541   156.8    21.7    21.9
2024 03 03    10 03 35.1 +26 20 49   0.06373 1.0502   156.9    21.7    21.7
2024 03 04    10 07 49.9 +25 44 34   0.05934 1.0465   157.1    21.6    21.5
...
2024 03 10    10 53 49.2 +18 03 17   0.03442 1.0264   164.5    15.0    20.1
...
2024 03 18    15 02 45.8 -30 20 06   0.01880 1.0061   124.7    54.4    19.9
...
2024 04 02    19 48 51.4 -39 38 44   0.07276 0.9909    81.1    94.7    24.2

A. U. Tomatic                (C) Copyright 2024 MPC           M.P.E.C. 2024-E22





More information about the Iaude mailing list